Wetbulb
40.81 41.65 40.93 40.94 39.79 40.01 38.47 41.65 38.06 39.92 40.40 44.55 45.57 45.09 46.21 46.81 46.96 46.29 45.25 45.25 46.02 46.46 47.24 47.58 47.60 47.55 47.31 46.89 46.29 46.16 45.13 44.66 44.30 44.23 43.75 43.46 43.19 43.44 43.37 42.99 42.16 41.84 41.20 40.85
39.49 40.75 41.52 40.17 42.07 41.49 41.70 42.25 42.22 42.52 41.65 46.44 46.19 46.91 46.08 46.37 46.03 44.59 43.89 43.98 44.84 45.62 45.69 45.61 45.59 45.00 44.60 44.57 44.62 45.18 43.71 42.73 42.92 42.84 42.48 42.18 41.60 41.13 40.90 40.44 40.27 39.83 38.81 38.48
37.22 39.42 38.78 36.97 41.52 43.25 43.70 43.80 43.58 40.46 43.98 45.24 44.88 44.07 44.41 45.95 45.13 43.90 43.30 43.89 44.03 44.19 44.15 44.13 44.22 44.59 44.05 43.88 43.66 42.58 41.55 40.86 40.31 40.42 39.66 39.47 39.43 38.94 38.36 38.01 38.32 37.65 37.45 37.26
38.30 38.35 33.07 43.14 44.51 43.69 43.53 43.62 45.03 44.11 44.44 44.53 44.34 44.16 45.16 46.36 45.07 43.45 43.51 43.46 43.48 43.48 43.50 43.98 44.01 43.26 42.82 42.01 41.24 40.40 39.46 38.74 38.54 38.04 37.33 37.54 37.39 37.09 37.35 37.52 36.63 36.09 35.59 35.19
37.74 36.63 41.30 43.07 43.02 41.86 41.40 42.64 44.56 44.07 44.11 44.76 44.91 45.05 41.92 43.95 45.46 44.64 44.31 43.89 43.67 43.93 43.04 42.65 41.93 41.57 40.73 39.77 39.18 38.15 37.07 36.52 36.42 36.63 36.24 36.18 35.85 35.91 35.95 35.47 34.82 34.34 34.15 33.75
37.56 34.39 34.09 42.76 42.78 44.41 43.98 38.97 44.77 45.18 44.66 44.81 45.11 42.68 41.18 42.71 43.70 43.05 43.12 42.82 41.94 41.71 41.16 40.30 40.02 40.05 38.67 37.19 36.48 35.17 35.51 35.90 36.36 36.23 35.42 34.61 34.61 34.45 34.73 34.58 33.45 33.57 32.93 33.27
37.67 37.04 40.63 45.96 44.11 44.32 37.19 41.13 46.03 45.95 46.00 46.35 44.98 45.17 42.82 43.32 42.68 42.60 41.68 40.89 40.99 40.13 38.64 38.36 38.78 38.27 36.12 35.67 34.55 35.67 35.93 35.81 35.21 35.28 34.53 34.26 34.18 34.07 33.46 32.85 32.53 32.26 31.52 32.09
38.41 36.36 33.49 46.60 43.22 40.87 46.34 47.74 47.25 46.80 46.63 45.10 42.73 41.73 41.58 40.97 40.20 39.69 39.10 38.93 39.02 37.55 36.54 36.96 37.28 36.85 35.28 34.09 35.26 35.15 34.94 34.29 33.86 33.90 33.21 32.83 32.66 32.38 32.23 31.60 30.62 30.22 30.13 30.43
42.40 42.19 47.45 47.71 46.58 47.74 49.17 47.72 47.38 46.56 45.58 44.08 41.82 40.25 39.87 39.21 39.10 38.65 38.45 38.13 37.98 36.74 35.59 35.55 35.77 35.65 33.53 33.30 34.00 33.60 32.99 32.37 32.30 32.10 31.89 31.79 30.81 30.49 30.01 30.22 29.27 28.22 27.80 27.67
42.24 46.45 46.19 47.06 46.40 47.71 48.74 48.61 47.83 46.94 45.14 44.11 41.02 40.22 39.10 38.84 37.84 37.54 37.58 36.56 36.53 35.84 34.31 33.38 34.40 33.71 33.23 32.69 32.47 31.91 30.84 30.82 31.11 30.59 29.20 30.61 30.48 30.13 28.93 28.23 27.04 25.76 25.18 24.06
43.79 44.69 45.50 46.89 47.66 47.60 47.48 47.22 45.84 45.52 44.62 42.96 41.15 39.56 38.97 37.84 37.29 36.94 36.05 35.48 35.64 34.37 33.26 32.59 33.14 32.20 31.92 31.30 30.66 29.63 29.72 29.55 29.55 29.41 29.06 29.03 29.38 28.86 27.69 28.01 24.71 23.44 23.25 23.15
43.96 48.82 47.74 48.17 48.97 48.48 45.94 44.67 44.48 43.33 41.89 41.93 41.34 39.32 38.54 36.96 36.74 35.71 34.47 34.61 34.02 33.26 32.60 31.97 31.65 30.23 29.98 30.12 29.46 28.57 28.14 28.37 28.24 27.97 28.51 28.34 27.84 27.57 27.31 25.09 24.16 23.84 23.27 23.42
48.92 49.67 47.82 48.14 49.13 48.01 46.17 44.78 43.87 42.64 41.92 39.96 39.88 38.71 37.51 35.83 35.43 32.84 34.18 33.69 32.97 32.01 31.59 30.89 30.03 28.59 29.24 29.66 28.74 27.59 27.02 26.65 27.64 27.11 27.39 26.83 26.23 26.08 25.04 27.11 26.12 24.78 24.13 23.30
47.85 45.88 43.21 45.11 44.14 46.61 45.03 43.24 42.25 41.63 40.83 39.33 38.12 37.54 36.11 33.91 32.92 33.14 32.61 32.69 32.32 31.13 29.93 29.52 28.52 27.32 28.50 28.76 27.76 27.22 27.11 24.32 26.77 27.15 26.95 25.90 26.08 26.09 25.92 24.82 24.07 25.49 26.15 24.18
46.18 45.88 48.35 46.07 44.51 42.90 42.28 40.70 38.77 37.45 37.17 36.23 36.73 35.21 34.13 33.11 32.31 32.15 32.39 31.52 30.55 29.17 28.28 27.91 26.92 26.28 27.86 27.81 26.40 26.19 26.03 26.09 25.64 26.18 26.25 24.72 26.35 25.82 25.66 25.23 24.70 24.74 25.28 25.26
44.10 44.04 43.38 42.34 41.34 40.02 39.39 39.02 37.29 35.71 35.82 34.98 34.16 34.06 33.91 33.50 32.78 31.94 31.32 30.92 28.99 26.99 26.80 24.00 25.48 26.30 26.75 26.44 25.67 26.26 26.36 22.82 22.36 25.00 25.40 25.31 25.34 24.83 24.62 24.16 23.99 23.64 23.62 23.67
40.56 39.44 40.88 39.66 38.98 38.69 39.18 39.36 37.70 36.02 34.87 34.17 33.86 33.30 32.79 32.09 31.31 30.25 29.63 29.47 28.29 27.33 27.02 26.73 25.13 25.86 25.51 25.13 24.81 25.62 25.97 25.11 21.39 24.85 24.32 24.36 24.00 23.85 23.66 23.32 22.77 22.74 23.12 23.35
47.12 45.23 43.44 41.83 39.73 38.98 38.27 37.74 36.50 35.29 34.21 33.80 32.81 32.20 30.12 29.41 28.87 27.70 26.47 26.60 25.09 24.83 26.47 26.22 25.18 24.65 24.34 23.53 23.36 24.44 24.43 23.51 23.50 22.90 23.44 22.77 22.16 23.60 23.11 22.60 21.99 21.46 22.14 22.29
46.11 43.30 42.86 40.82 39.88 38.80 36.88 35.81 35.46 35.07 33.13 32.03 29.75 28.40 29.74 29.07 29.09 28.31 27.60 23.47 22.65 23.98 24.16 24.90 20.69 23.05 23.28 20.61 20.11 23.89 23.03 21.86 22.07 22.33 22.59 20.76 22.25 22.26 21.89 21.16 20.58 20.81 21.00 20.77
42.49 42.11 40.18 39.00 38.63 37.17 35.42 35.70 34.15 32.71 32.37 31.25 28.42 27.35 26.99 26.51 26.02 24.49 25.26 24.22 25.00 25.24 25.17 22.92 23.40 22.71 21.83 20.81 18.26 22.88 21.50 20.98 20.73 20.96 20.99 20.45 20.90 20.11 20.54 19.07 19.06 19.28 19.44 19.82
38.96 38.03 36.87 36.28 36.00 35.92 34.06 32.64 32.08 30.81 30.95 27.41 27.32 25.64 25.71 24.31 24.36 23.74 23.39 23.71 23.13 23.96 22.74 20.40 21.06 20.53 21.77 18.29 21.11 21.24 20.40 19.58 19.49 19.81 19.80 19.49 19.51 19.49 19.15 19.24 18.77 18.16 18.44 18.54
37.27 34.92 33.03 33.66 33.18 31.22 31.82 32.98 31.72 28.28 26.99 26.31 25.25 24.74 24.08 23.60 23.43 22.88 22.42 24.60 23.62 19.93 22.61 21.81 20.18 14.07 16.01 13.74 20.49 19.51 18.49 18.04 18.47 19.20 18.90 18.37 17.83 18.15 18.08 17.91 17.09 17.00 17.58 17.81
34.10 32.49 30.81 28.90 28.25 29.50 29.64 28.22 27.02 26.47 24.86 23.97 23.73 24.46 25.88 25.94 26.01 23.79 21.86 22.18 23.07 18.06 21.39 18.61 12.52 10.93 10.87 18.79 18.52 17.94 17.18 16.73 17.10 17.33 17.47 16.97 16.57 16.74 17.01 16.50 15.77 16.28 16.00 15.86
32.20 30.55 29.10 28.96 27.23 26.40 25.33 26.13 27.08 26.58 26.00 25.90 25.97 26.78 26.13 25.71 24.62 24.60 22.66 17.62 15.17 17.59 17.68 15.26 13.31 9.82 10.87 17.86 16.81 16.30 16.30 16.64 15.90 15.71 16.31 14.29 16.19 15.62 15.73 15.51 14.99 15.27 14.71 14.03
29.53 28.16 27.40 27.29 27.80 28.48 27.47 27.83 27.05 26.78 26.64 26.80 25.79 25.98 26.41 27.14 25.86 23.93 22.69 19.06 14.89 17.47 17.54 9.00 7.60 9.34 16.42 16.58 15.29 14.24 15.26 15.84 13.69 13.87 13.70 14.12 14.16 13.71 14.60 14.42 13.57 13.57 12.92 13.60
29.68 30.29 31.43 31.57 30.57 30.66 29.69 29.52 27.51 28.11 27.46 25.91 25.87 26.35 25.54 24.28 22.18 21.22 19.97 17.13 16.87 14.80 17.58 17.16 14.49 15.52 15.82 14.97 13.88 13.06 13.64 13.99 13.19 12.64 11.34 12.37 12.23 12.33 11.99 11.59 11.68 12.33 12.61 12.51
31.69 30.98 31.29 30.83 30.74 30.12 30.40 29.70 28.44 27.07 27.28 26.63 24.99 25.18 24.04 23.38 21.41 20.09 17.75 18.26 17.70 16.21 16.52 16.90 16.87 13.14 12.86 12.82 13.56 13.30 13.20 13.30 10.11 9.80 11.17 11.19 10.94 10.90 10.03 9.62 10.18 10.91 11.47 11.47
MSLP
1016.80 1017.05 1017.27 1017.26 1017.78 1018.48 1018.64 1017.51 1016.89 1015.82 1015.48 1015.29 1016.17 1017.23 1018.20 1019.12 1019.90 1020.78 1021.52 1022.20 1022.65 1023.05 1023.51 1023.94 1024.56 1025.28 1025.85 1026.28 1026.88 1027.42 1027.92 1028.47 1029.12 1029.49 1029.74 1029.89 1029.99 1030.08 1030.01 1030.00 1029.85 1029.68 1029.46 1029.19
1016.98 1017.29 1017.29 1017.09 1016.96 1017.13 1017.12 1016.74 1016.45 1016.14 1015.82 1016.36 1017.25 1018.08 1019.07 1019.86 1020.45 1021.43 1022.27 1023.00 1023.51 1023.97 1024.41 1024.93 1025.54 1026.19 1026.73 1027.23 1027.77 1028.26 1028.77 1029.26 1029.74 1029.98 1030.14 1030.34 1030.43 1030.44 1030.37 1030.25 1030.02 1029.82 1029.54 1029.28
1016.83 1017.34 1017.27 1016.75 1015.75 1015.64 1015.85 1016.20 1016.13 1015.90 1016.35 1017.35 1017.82 1019.32 1020.25 1020.58 1021.41 1022.23 1023.03 1023.74 1024.29 1024.86 1025.46 1026.03 1026.59 1027.09 1027.66 1028.29 1028.83 1029.21 1029.66 1030.13 1030.46 1030.63 1030.66 1030.79 1030.78 1030.67 1030.60 1030.43 1030.20 1029.93 1029.61 1029.30
1017.39 1017.43 1016.81 1015.11 1015.51 1015.45 1015.46 1015.82 1016.08 1016.31 1016.96 1018.00 1019.28 1020.61 1021.21 1021.75 1022.35 1023.09 1023.84 1024.55 1025.28 1025.98 1026.56 1027.15 1027.68 1028.25 1028.88 1029.36 1029.75 1030.13 1030.50 1030.84 1031.11 1031.22 1031.15 1031.20 1031.12 1030.96 1030.79 1030.53 1030.35 1030.05 1029.74 1029.47
1017.60 1016.94 1015.66 1014.98 1015.27 1015.50 1015.41 1015.18 1015.91 1016.39 1017.49 1018.75 1019.98 1020.88 1022.37 1023.01 1023.32 1024.02 1024.77 1025.61 1026.37 1027.04 1027.68 1028.26 1028.78 1029.33 1029.68 1030.04 1030.52 1030.93 1031.24 1031.54 1031.74 1031.86 1031.73 1031.54 1031.29 1031.16 1030.94 1030.66 1030.42 1030.10 1029.79 1029.42
1017.67 1016.97 1015.60 1014.78 1015.32 1015.55 1015.65 1015.30 1016.39 1016.94 1017.72 1018.77 1019.92 1020.25 1022.45 1023.97 1024.61 1025.27 1026.03 1026.84 1027.50 1028.28 1028.95 1029.51 1029.96 1030.29 1030.58 1030.95 1031.28 1031.73 1032.16 1032.30 1032.33 1032.33 1032.17 1031.91 1031.74 1031.46 1031.16 1030.84 1030.42 1030.11 1029.71 1029.41
1017.10 1016.54 1015.26 1014.62 1015.40 1015.89 1015.71 1015.96 1016.66 1017.38 1018.17 1019.04 1019.88 1021.25 1023.10 1024.52 1025.39 1026.16 1026.92 1027.72 1028.57 1029.26 1029.85 1030.43 1030.89 1031.18 1031.41 1031.74 1032.14 1032.63 1032.80 1032.81 1032.75 1032.65 1032.46 1032.24 1031.99 1031.68 1031.25 1030.88 1030.53 1030.09 1029.72 1029.30
1016.95 1016.63 1015.47 1015.00 1015.81 1015.67 1015.56 1016.35 1017.21 1018.10 1019.03 1020.23 1021.73 1023.07 1024.11 1025.24 1026.17 1027.03 1027.89 1028.78 1029.50 1030.17 1030.92 1031.44 1031.68 1031.90 1032.24 1032.58 1033.03 1033.23 1033.22 1033.08 1032.99 1032.88 1032.72 1032.48 1032.16 1031.78 1031.41 1030.99 1030.54 1030.15 1029.73 1029.17
1015.16 1014.56 1014.74 1014.90 1015.02 1015.63 1015.89 1016.66 1017.75 1018.70 1020.00 1021.17 1022.41 1023.75 1024.92 1025.91 1026.85 1027.77 1028.58 1029.43 1030.27 1030.99 1031.85 1032.59 1032.94 1032.99 1033.25 1033.74 1033.80 1033.75 1033.53 1033.36 1033.23 1033.16 1032.96 1032.66 1032.35 1031.95 1031.58 1031.27 1030.85 1030.60 1030.26 1029.82
1014.84 1013.97 1014.49 1015.00 1015.76 1016.21 1016.64 1017.20 1018.39 1019.46 1020.58 1021.69 1022.82 1024.29 1025.45 1026.54 1027.62 1028.52 1029.34 1030.14 1030.92 1031.60 1032.35 1033.16 1033.76 1034.06 1034.31 1034.51 1034.48 1034.16 1033.90 1033.70 1033.51 1033.37 1033.49 1032.90 1032.62 1032.31 1032.19 1031.88 1031.76 1031.78 1031.33 1031.05
1013.82 1014.25 1014.79 1015.18 1015.61 1016.49 1017.43 1018.32 1019.25 1020.40 1021.26 1022.27 1023.57 1024.83 1025.93 1027.07 1028.17 1029.11 1030.05 1030.88 1031.59 1032.37 1033.02 1033.70 1034.32 1034.71 1035.02 1035.10 1034.97 1034.58 1034.25 1034.05 1033.81 1033.79 1033.52 1033.14 1032.86 1032.78 1032.82 1032.67 1033.50 1033.08 1032.46 1032.03
1012.37 1012.65 1013.44 1013.68 1015.24 1016.63 1017.79 1018.81 1019.88 1020.70 1022.06 1023.39 1024.33 1025.28 1026.58 1027.85 1028.97 1029.90 1030.84 1031.74 1032.43 1033.17 1033.71 1034.25 1034.77 1035.34 1035.62 1035.76 1035.49 1035.14 1034.63 1034.43 1034.36 1034.18 1033.70 1033.35 1033.01 1032.71 1032.84 1033.22 1033.27 1033.08 1032.96 1032.57
1012.44 1013.10 1014.40 1014.96 1015.72 1017.07 1018.01 1019.33 1020.61 1021.62 1022.62 1023.73 1025.24 1026.33 1027.49 1028.59 1029.69 1030.86 1031.58 1032.38 1033.13 1033.85 1034.43 1034.88 1035.31 1035.82 1036.02 1036.15 1035.99 1035.67 1035.29 1035.23 1034.70 1034.25 1033.83 1033.52 1033.28 1032.78 1032.34 1032.18 1032.15 1032.14 1032.11 1031.96
1013.70 1014.43 1015.75 1016.20 1016.78 1017.75 1018.95 1020.26 1021.59 1022.65 1023.71 1024.89 1026.03 1027.34 1028.40 1029.53 1030.90 1031.54 1032.32 1033.23 1033.93 1034.52 1035.06 1035.48 1035.87 1036.22 1036.44 1036.49 1036.27 1035.95 1035.59 1035.50 1034.93 1034.40 1034.06 1034.01 1033.54 1032.97 1032.61 1032.21 1031.64 1031.21 1031.08 1031.19
1014.03 1014.58 1014.72 1016.31 1017.77 1018.82 1020.01 1021.04 1022.23 1023.49 1024.67 1025.97 1027.17 1028.10 1029.21 1030.05 1031.22 1032.30 1033.29 1034.10 1034.76 1035.29 1035.74 1036.12 1036.35 1036.66 1036.79 1036.68 1036.38 1036.06 1035.73 1035.46 1035.34 1034.80 1034.40 1034.44 1033.60 1033.24 1032.81 1032.36 1031.86 1031.29 1030.80 1030.33
1014.44 1015.24 1016.09 1016.90 1018.04 1019.23 1020.41 1021.55 1022.52 1024.05 1025.33 1026.53 1027.70 1028.82 1029.77 1030.82 1032.03 1033.09 1033.95 1034.63 1034.98 1035.67 1036.29 1037.05 1036.85 1036.97 1037.02 1036.73 1036.46 1036.00 1035.79 1035.92 1035.90 1035.13 1034.61 1034.18 1033.79 1033.39 1032.93 1032.60 1032.06 1031.55 1030.92 1030.46
1014.29 1015.58 1016.43 1017.54 1018.48 1019.43 1020.50 1021.75 1023.04 1024.30 1025.74 1026.98 1028.17 1029.48 1030.61 1031.67 1032.70 1033.64 1034.50 1035.20 1035.74 1036.15 1036.55 1036.75 1037.12 1037.25 1037.19 1037.15 1036.79 1036.22 1035.98 1035.80 1036.07 1035.22 1034.92 1034.52 1034.17 1033.69 1033.36 1032.92 1032.35 1031.85 1031.31 1031.05
1012.79 1013.92 1015.38 1016.38 1017.63 1019.22 1020.97 1022.38 1023.68 1025.04 1026.11 1027.52 1028.96 1030.11 1031.30 1032.22 1032.98 1034.14 1035.14 1035.93 1036.45 1036.70 1036.77 1037.18 1037.70 1037.51 1037.37 1037.68 1037.43 1036.62 1036.33 1036.16 1035.89 1035.60 1035.26 1034.95 1034.77 1034.03 1033.63 1033.24 1032.83 1032.28 1031.77 1031.42
1013.24 1014.38 1015.82 1017.48 1018.80 1020.19 1021.69 1022.89 1024.26 1025.64 1027.15 1028.46 1029.83 1031.11 1032.15 1033.13 1033.91 1034.72 1035.43 1036.30 1036.65 1036.59 1037.19 1037.65 1038.59 1037.72 1037.53 1038.32 1038.28 1036.88 1036.64 1036.52 1036.20 1035.88 1035.57 1035.39 1034.69 1034.46 1034.11 1033.84 1033.38 1032.86 1032.40 1031.86
1013.91 1015.22 1016.96 1018.34 1019.83 1021.09 1022.25 1023.61 1025.19 1026.63 1028.01 1029.22 1030.64 1031.90 1033.00 1034.08 1034.88 1035.71 1036.24 1036.41 1036.76 1037.17 1037.54 1038.18 1037.87 1037.81 1037.85 1038.12 1038.55 1037.12 1036.96 1036.77 1036.50 1036.19 1035.88 1035.62 1035.17 1034.96 1034.59 1034.35 1033.98 1033.39 1032.97 1032.42
1014.70 1016.16 1017.76 1019.33 1020.88 1022.30 1023.33 1024.62 1025.78 1027.17 1028.68 1030.32 1031.22 1032.72 1033.61 1034.89 1035.74 1036.31 1036.62 1036.64 1037.48 1037.80 1038.16 1038.61 1038.47 1038.50 1038.14 1038.78 1037.83 1037.51 1037.33 1037.19 1036.94 1036.57 1036.20 1035.96 1035.79 1035.36 1035.01 1034.69 1034.30 1033.95 1033.48 1032.97
1015.64 1017.19 1018.93 1020.43 1021.96 1023.28 1024.62 1025.55 1026.85 1028.36 1029.89 1031.08 1032.40 1033.39 1034.32 1035.25 1036.01 1036.71 1037.04 1036.84 1037.78 1038.71 1038.39 1038.46 1038.82 1039.97 1039.52 1039.59 1038.09 1037.98 1037.82 1037.70 1037.42 1036.99 1036.71 1036.54 1036.32 1035.92 1035.50 1035.13 1034.82 1034.44 1033.92 1033.44
1016.89 1018.40 1020.06 1021.72 1022.80 1023.99 1025.52 1027.09 1028.39 1029.45 1030.63 1031.89 1033.01 1033.85 1034.27 1034.97 1035.62 1036.28 1036.84 1037.71 1037.99 1039.09 1038.63 1039.28 1040.42 1040.53 1040.34 1038.98 1038.67 1038.54 1038.32 1038.13 1037.82 1037.46 1037.20 1037.09 1036.83 1036.44 1035.94 1035.56 1035.33 1034.78 1034.36 1033.91
1018.07 1019.87 1021.52 1022.77 1023.87 1025.00 1026.57 1028.37 1029.30 1030.64 1031.72 1032.91 1033.71 1034.22 1034.57 1035.16 1036.14 1036.84 1037.72 1038.85 1039.58 1039.38 1039.45 1040.10 1040.50 1040.73 1040.43 1039.35 1039.19 1039.02 1038.69 1038.43 1038.25 1038.00 1037.57 1037.60 1037.14 1036.82 1036.38 1035.98 1035.54 1035.12 1034.82 1034.40
1019.47 1020.83 1022.09 1023.04 1024.15 1025.68 1027.10 1028.68 1030.08 1031.32 1032.28 1033.19 1034.21 1034.85 1035.12 1035.45 1036.03 1037.11 1037.89 1038.91 1039.81 1039.34 1039.57 1041.00 1040.92 1040.68 1039.86 1039.58 1039.61 1039.54 1039.11 1038.75 1038.91 1038.56 1038.24 1037.81 1037.48 1037.12 1036.73 1036.38 1036.05 1035.64 1035.22 1034.61
1020.18 1021.23 1022.21 1023.13 1024.25 1025.75 1027.53 1028.90 1029.98 1031.19 1032.32 1033.38 1034.25 1035.02 1035.73 1036.47 1037.29 1037.81 1038.37 1039.13 1039.40 1039.89 1039.75 1040.05 1040.34 1040.15 1039.95 1039.87 1039.95 1039.89 1039.51 1039.13 1038.98 1038.76 1038.74 1038.16 1037.87 1037.43 1037.20 1036.93 1036.49 1035.91 1035.37 1034.89
1020.88 1021.78 1022.87 1024.20 1025.51 1026.66 1027.82 1028.98 1030.05 1031.28 1032.42 1033.41 1034.30 1035.45 1036.21 1036.84 1037.45 1037.85 1038.65 1039.00 1039.37 1039.85 1040.07 1040.17 1040.16 1040.41 1040.41 1040.40 1040.02 1039.88 1039.65 1039.37 1039.57 1039.43 1038.88 1038.50 1038.21 1037.87 1037.61 1037.34 1036.85 1036.30 1035.63 1034.99
Wind_Speed
3 1 4 4 5 11 9 13 8 11 10 10 8 6 6 5 3 6 8 9 9 11 12 14 14 14 14 13 12 10 9 7 6 5 5 5 6 8 9 10 11 12 13 13
5 3 5 9 10 11 14 13 14 16 16 6 6 5 7 7 6 8 10 11 12 14 16 15 14 14 13 12 11 10 9 9 8 7 6 7 8 9 10 10 12 12 13 14
3 2 3 8 16 17 12 9 11 10 3 3 1 6 7 7 8 10 12 13 15 15 15 14 14 13 12 11 11 10 9 9 8 8 8 9 10 10 11 12 13 13 14 14
2 3 3 1 2 1 7 7 10 6 4 4 8 9 9 8 10 12 14 15 15 14 14 14 13 13 12 11 10 10 9 9 9 9 9 10 10 11 12 12 13 13 14 15
3 6 9 13 6 6 8 5 5 6 6 8 11 13 12 8 10 13 15 14 14 13 14 13 13 11 11 10 10 9 9 9 9 9 10 10 11 13 13 13 13 13 14 15
4 4 5 3 7 3 3 6 8 6 6 10 11 7 8 10 13 15 16 14 14 14 14 13 11 10 10 10 10 10 9 8 8 9 10 11 12 13 13 13 13 12 13 13
5 6 6 3 9 5 6 3 9 5 6 9 5 6 17 15 16 15 15 16 15 13 12 11 10 9 9 10 10 8 8 8 8 9 11 11 12 12 12 12 12 12 13 13
4 2 9 11 8 6 7 9 9 8 7 11 15 17 18 17 17 17 16 15 13 12 11 10 9 8 9 10 8 8 8 8 9 10 9 10 12 12 12 12 12 12 13 12
10 6 5 15 2 5 8 10 9 10 12 16 18 18 18 17 17 15 15 13 11 11 12 10 10 9 9 9 8 8 9 9 10 11 10 10 11 11 10 11 10 11 11 12
5 11 8 11 5 7 7 8 10 12 16 17 20 19 18 16 15 13 12 12 10 11 10 9 8 9 9 8 8 9 9 9 9 10 10 10 8 8 9 9 10 11 11 11
6 5 5 8 11 11 10 12 15 15 17 18 20 19 18 16 14 13 11 10 9 9 9 9 8 8 8 8 9 9 9 8 9 8 9 9 8 8 8 9 10 10 10 10
6 9 10 6 16 15 16 16 17 18 18 17 17 19 18 15 13 12 11 10 10 9 9 8 7 8 8 8 9 9 9 7 7 8 7 7 8 8 5 5 10 10 10 10
4 9 6 6 14 16 17 18 17 18 18 21 17 16 16 15 13 13 12 11 10 9 8 7 7 7 7 8 8 8 8 8 7 6 7 8 8 8 9 8 8 5 7 11
11 15 9 12 9 15 18 19 18 18 17 17 19 17 16 16 14 12 12 11 10 9 7 6 6 6 7 7 8 8 8 2 8 7 7 8 8 8 8 9 10 9 9 10
12 2 6 14 18 18 19 20 21 19 19 18 17 17 16 16 14 13 12 11 9 8 7 6 6 6 7 7 8 8 7 6 8 7 6 7 7 8 8 9 9 9 10 10
11 11 16 19 21 21 22 21 21 20 19 19 17 17 15 15 14 13 11 9 7 6 7 4 3 6 7 7 8 6 6 5 8 7 7 7 7 7 8 9 10 9 9 11
19 15 16 18 20 22 22 18 19 20 20 19 18 17 17 16 14 12 11 9 8 7 6 5 5 6 6 7 8 6 6 6 7 6 7 7 7 7 8 8 9 9 10 11
10 16 17 21 24 22 21 19 20 21 19 20 19 17 14 12 13 12 10 9 8 5 6 6 6 5 6 8 8 6 6 6 6 6 6 7 7 7 8 9 9 10 11 11
12 17 18 21 21 20 20 21 21 20 19 18 17 16 14 12 13 12 10 9 6 6 5 5 2 3 6 8 9 5 5 6 6 6 6 8 7 8 8 9 10 10 11 11
17 19 21 22 21 21 22 20 22 20 18 18 15 14 14 11 10 10 9 6 6 4 5 5 4 5 6 7 7 5 5 6 6 6 6 7 7 8 8 9 10 10 10 11
21 23 24 22 22 21 19 19 19 20 19 15 15 13 13 13 11 10 9 6 6 5 5 3 5 5 5 6 5 5 5 6 6 6 6 7 8 8 8 9 9 10 10 10
20 21 20 21 20 19 19 19 19 16 16 15 14 13 13 13 10 7 6 5 5 2 2 3 4 7 6 9 5 5 5 6 6 6 6 7 7 8 9 9 9 10 10 10
19 21 20 19 21 20 17 16 15 16 16 15 14 14 11 9 7 7 6 5 4 3 3 4 5 5 6 4 5 5 6 6 6 6 6 7 7 8 8 9 9 9 10 10
21 21 20 20 19 20 20 16 17 16 14 13 11 9 11 8 6 5 7 8 7 4 4 4 3 5 6 3 4 4 5 5 6 6 7 7 7 7 8 9 9 9 9 11
20 20 20 21 21 15 21 19 16 15 15 14 12 9 9 5 4 6 5 6 6 3 4 5 3 3 3 4 4 4 5 5 5 6 6 6 7 7 8 8 9 9 9 10
22 15 15 18 16 15 14 14 13 12 11 11 9 7 7 7 7 7 5 6 5 4 3 2 3 2 3 3 4 4 5 5 5 6 6 6 7 7 8 9 9 9 9 9
17 17 15 14 13 14 13 13 12 12 11 10 10 8 8 7 6 6 6 5 4 3 2 1 1 3 4 4 4 4 4 5 5 6 6 6 7 7 8 9 9 9 9 9
Wind_Direction
168 138 213 223 198 179 199 226 234 260 265 287 332 349 3 10 62 81 76 77 82 91 96 101 105 107 106 99 95 95 94 86 67 43 16 351 336 329 328 324 323 323 320 319
174 195 245 261 242 221 227 244 248 266 273 331 85 8 21 20 80 89 91 94 99 102 104 105 103 99 95 91 86 80 72 64 51 37 14 4 351 339 334 329 326 324 322 319
213 188 273 271 242 233 224 227 241 253 308 94 327 52 35 58 83 98 104 111 109 104 101 100 97 96 90 85 78 74 69 56 38 20 4 355 343 338 336 329 326 322 318 318
151 165 235 9 140 358 217 220 212 238 263 57 100 91 66 66 103 110 114 114 109 107 105 98 93 88 86 80 74 63 51 36 23 8 359 352 340 336 330 328 325 323 321 321
172 225 291 269 196 208 205 204 214 202 151 136 133 125 76 67 96 114 115 110 106 100 97 92 88 85 82 73 63 51 35 26 18 5 351 341 337 334 328 327 324 321 321 320
171 207 241 75 143 154 193 213 163 160 156 159 169 227 102 116 118 116 114 113 108 100 94 89 81 75 71 62 53 42 30 19 4 353 345 338 335 331 327 324 321 327 324 324
192 234 268 177 149 163 234 93 147 144 139 158 182 39 124 128 121 116 115 112 106 98 93 85 76 71 66 61 50 33 15 2 352 344 339 339 330 329 328 326 326 326 329 326
179 188 254 151 139 221 98 128 136 134 130 114 117 123 127 127 126 123 119 117 107 98 86 73 68 67 64 53 36 16 358 350 345 346 340 334 335 333 333 333 330 333 330 327
194 207 110 178 330 123 150 146 147 138 134 134 133 134 136 134 129 124 121 112 104 98 90 75 63 56 60 37 16 360 349 350 346 341 350 337 338 339 334 338 338 339 336 334
174 193 187 184 158 153 152 139 137 138 140 142 139 141 138 135 129 127 122 113 109 105 98 88 73 61 47 27 5 357 350 352 346 342 341 344 339 343 343 341 349 342 336 340
237 174 171 202 194 165 137 129 130 136 143 141 142 142 140 136 133 125 121 118 111 106 99 89 75 58 37 23 5 359 349 350 350 341 344 339 343 351 342 350 357 335 336 330
213 195 211 180 184 163 153 149 145 141 139 143 145 140 137 133 131 128 122 118 113 108 101 90 75 53 34 20 5 357 346 354 359 333 342 340 340 337 14 11 331 324 325 324
168 119 93 119 143 162 149 146 145 142 142 141 140 137 135 133 131 118 121 121 115 106 97 83 72 51 31 12 357 358 344 354 336 335 342 347 339 336 339 344 335 314 329 336
134 121 117 154 158 147 140 136 136 132 134 136 135 135 133 127 135 127 123 118 116 107 92 81 74 49 23 5 354 354 341 7 338 342 342 344 334 342 339 338 336 338 347 343
171 156 147 131 137 138 137 139 138 138 137 136 137 135 138 135 132 126 124 122 115 105 91 82 64 44 14 4 354 350 344 358 345 338 346 323 330 341 337 336 334 336 336 340
150 135 139 148 147 146 148 149 142 143 142 140 140 140 135 128 128 127 129 131 130 106 97 106 94 32 11 3 350 343 348 28 341 330 337 336 344 338 340 338 336 337 339 345
144 151 152 155 158 158 159 151 146 144 143 143 138 134 133 132 131 129 124 118 109 103 92 84 47 25 13 6 345 348 343 350 340 326 339 344 342 336 339 332 337 338 339 355
183 168 169 162 158 156 154 147 143 145 144 137 137 137 132 139 138 133 125 122 120 112 90 70 29 8 24 13 341 345 347 346 342 337 332 346 341 332 337 339 339 338 338 344
162 153 152 153 151 148 146 143 143 137 136 137 133 135 137 136 138 138 130 123 148 129 93 67 42 358 20 34 338 348 351 344 338 336 337 336 333 344 337 342 339 338 341 338
143 136 141 141 143 146 143 140 136 138 136 137 127 125 129 117 115 125 136 120 87 85 92 55 14 27 15 13 342 351 350 343 340 338 355 332 344 334 337 338 337 340 339 339
140 138 138 139 142 141 136 134 136 137 136 130 135 131 131 129 130 135 156 129 104 94 71 65 35 9 21 351 320 357 353 347 340 339 346 346 335 335 337 338 338 340 337 339
138 136 137 137 137 131 135 136 129 122 127 121 118 121 126 134 133 106 38 106 112 111 84 65 39 28 358 312 3 359 355 352 340 340 348 342 337 332 334 336 339 333 336 335
130 131 128 132 132 127 113 116 123 126 124 125 130 138 143 142 145 148 141 119 119 104 99 66 44 9 334 336 4 359 354 347 342 347 341 345 330 331 328 333 332 331 334 335
128 128 127 122 119 116 119 123 126 119 117 124 125 127 138 132 114 88 94 95 108 117 69 65 47 6 317 13 9 355 349 350 347 344 344 336 339 330 330 329 329 330 333 328
126 126 127 130 124 122 127 126 121 127 132 128 127 128 129 123 135 131 122 110 136 169 108 99 52 350 6 17 6 349 344 353 354 334 345 340 336 335 330 329 326 330 324 326
135 133 134 128 125 127 130 138 133 138 136 137 134 131 117 112 115 126 123 124 130 123 91 99 41 356 20 17 346 347 335 345 348 347 334 341 340 335 333 330 324 324 326 326
125 126 125 122 124 132 139 138 140 141 145 144 139 140 138 135 122 126 129 139 125 122 123 77 41 26 3 345 338 338 332 341 358 338 337 341 339 336 334 327 323 321 320 321